Volver al catálogo

STARLINK-30833

ActivoComunicacionesVLEO
NORAD 58152·PAYLOAD·🇺🇸 United States

Lanzado Oct 29, 2023 desde Vandenberg Space Force Base

Loading…

Próximos Pases (próximas 24 horas)

TLE

ActualizadoSource: CelesTrak SupGP

Época: Sep 14, 2026, 21:58 UTC

1 58152C 23166C   26257.91576389  .00037827  00000+0  12168-2 0  2572
2 58152  53.1598  59.7149 0001173  81.0939 292.6071 15.31672101    16

Sigue STARLINK-30833 en tiempo real con AllMySat

Download on the App Store